Bismarck, ND

2:33 PM CDT on March 29, 2017 (GMT -0500)
Bismarck Municipal

Weather History for KBIS - January, 2012

Change the Weather History Date:

Tuesday, January 17, 2012

  Actual Average Record
Temperature  
Mean Temperature 2 °F 12 °F  
Max Temperature 8 °F 23 °F 54 °F (1926)
Min Temperature -5 °F 2 °F -40 °F (1967)
Degree Days  
Heating Degree Days 63 53  
Month to date heating degree days 667 896  
Since 1 July heating degree days 3629 4396  
Cooling Degree Days 0 0  
Month to date cooling degree days 0 0  
Year to date cooling degree days 0 0  
Moisture  
Dew Point -6 °F    
Average Humidity 72    
Maximum Humidity 87    
Minimum Humidity 57    
Precipitation  
Precipitation T in 0.02 in 0.58 in (1996)
Month to date precipitation 0.04 0.26  
Year to date precipitation 0.04 0.26  
Snow  
Snow T in 0.20 in 13.20 in (1996)
Month to date snowfall 0.4 5.3  
Since 1 July snowfall 4.3 25.8  
Snow Depth T in    
Sea Level Pressure  
Sea Level Pressure 30.31 in    
Wind  
Wind Speed 5 mph (South)    
Max Wind Speed 14 mph    
Max Gust Speed 15 mph    
Visibility 10 miles    
Events      
T = Trace of Precipitation, MM = Missing Value Source: NWS Daily Summary

Daily Weather History Graph

Daily Weather History Graph

Search for Another Location

Airport or City:

Trip Planner

Search our weather history database for the weather conditions in past years. The results will help you decide how hot, cold, wet, or windy it might be!

Date:

Astronomy

Jan. 17, 2012 Rise Set
Actual Time 8:22 AM CST 5:23 PM CST
Civil Twilight 7:48 AM CST 5:57 PM CST
Nautical Twilight 7:11 AM CST 6:35 PM CST
Astronomical Twilight 6:34 AM CST 7:11 PM CST
Moon 2:41 AM CST (1/17) 12:19 PM CST (1/17)
Length of Visible Light 10h 09m
Length of Day
9h 01m
Waning Crescent, 35% of the Moon is Illuminated
Jan 17
Waning Crescent
Jan 23
New
Jan 30
First Quarter
Feb 7
Full
Feb 14
Last Quarter

Hourly Weather History & Observations

Time (CST) Temp. Windchill Dew Point Humidity Pressure Visibility Wind Dir Wind Speed Gust Speed Precip Events Conditions
12:52 AM -0.0 °F -11.6 °F -7.1 °F 72% 30.38 in 10.0 mi North 5.8 mph - N/A   Clear
1:52 AM -0.9 °F -15.3 °F -7.1 °F 75% 30.38 in 10.0 mi NNW 8.1 mph - N/A   Clear
2:52 AM -2.0 °F -15.4 °F -8.0 °F 76% 30.39 in 10.0 mi NW 6.9 mph - N/A   Clear
3:52 AM -2.0 °F -13.9 °F -8.0 °F 76% 30.40 in 10.0 mi NW 5.8 mph - N/A   Mostly Cloudy
4:52 AM -4.0 °F -12.4 °F -9.0 °F 79% 30.40 in 10.0 mi West 3.5 mph - N/A   Clear
5:52 AM -4.0 °F -16.3 °F -9.0 °F 79% 30.41 in 10.0 mi West 5.8 mph - N/A   Partly Cloudy
6:52 AM -5.1 °F -13.6 °F -9.0 °F 83% 30.42 in 10.0 mi West 3.5 mph - N/A   Clear
7:52 AM -4.0 °F -17.8 °F -9.0 °F 79% 30.44 in 10.0 mi WNW 6.9 mph - N/A   Partly Cloudy
8:52 AM -2.0 °F - -8.0 °F 76% 30.42 in 10.0 mi Calm Calm - N/A   Partly Cloudy
9:52 AM -0.0 °F - -7.1 °F 72% 30.44 in 10.0 mi Calm Calm - N/A   Clear
10:52 AM 1.0 °F - -6.0 °F 72% 30.44 in 10.0 mi Calm Calm - N/A   Scattered Clouds
11:52 AM 3.0 °F -6.4 °F -6.0 °F 66% 30.41 in 10.0 mi West 4.6 mph - N/A   Scattered Clouds
12:52 PM 3.9 °F -5.3 °F -5.1 °F 66% 30.37 in 10.0 mi Variable 4.6 mph - N/A   Clear
1:52 PM 5.0 °F -2.1 °F -5.1 °F 63% 30.33 in 10.0 mi SW 3.5 mph - N/A   Clear
2:52 PM 6.1 °F -0.9 °F -5.1 °F 60% 30.30 in 10.0 mi SE 3.5 mph - N/A   Clear
3:52 PM 8.1 °F -2.0 °F -4.0 °F 58% 30.28 in 10.0 mi South 5.8 mph - N/A   Clear
4:52 PM 6.1 °F -6.8 °F -2.9 °F 67% 30.27 in 10.0 mi ESE 8.1 mph - N/A   Clear
5:52 PM 1.9 °F -11.8 °F -5.1 °F 72% 30.25 in 10.0 mi ESE 8.1 mph - N/A   Clear
6:52 PM -0.0 °F -11.6 °F -5.1 °F 79% 30.22 in 10.0 mi ESE 5.8 mph - N/A   Clear
7:52 PM 1.0 °F -12.9 °F -4.0 °F 79% 30.19 in 10.0 mi ESE 8.1 mph - N/A   Clear
8:52 PM -2.0 °F -15.4 °F -6.0 °F 83% 30.15 in 10.0 mi East 6.9 mph - N/A   Clear
9:52 PM -0.0 °F -14.2 °F -4.0 °F 83% 30.09 in 10.0 mi ESE 8.1 mph - N/A   Scattered Clouds
10:52 PM 5.0 °F -10.0 °F 1.0 °F 84% 30.04 in 10.0 mi SE 10.4 mph - N/A   Overcast
11:52 PM 3.0 °F -9.3 °F -0.9 °F 84% 30.00 in 10.0 mi SE 6.9 mph - N/A   Mostly Cloudy